Home   Weather   Amritsar   Past weeks

Flag for India Past Weather in Amritsar, Punjab, India — Yesterday and Last 2 Weeks

Now
77 °F

Thunderstorms. Partly cloudy.


Feels Like: 79 °F
Forecast: 69 / 98 °F
Wind: 10 mph from Northwest

Location: Amritsar Airport

Current Time: Apr 30, 2017 at 3:12:30 am

Latest Report: Apr 30, 2017 at 12:30 am


Visibility: 2 mi

Pressure: 29.71 "Hg

Humidity: 47%

Dew Point: 55 °F

Location of AmritsarLocation

Past Weather in Amritsar — Graph

°F

Amritsar Temperature Yesterday

Maximum temperature yesterday: 95 °F (at 3:00 pm)
Minimum temperature yesterday: 73 °F (at 4:30 am)
Average temperature yesterday: 83 °F

High & Low Weather Summary for the Past Weeks

 TemperatureHumidityPressure
High109 °F (Apr 18, 4:30 pm)100% (Apr 22, 4:30 am)29.86 "Hg (Apr 22, 4:30 am)
Low64 °F (Apr 15, 6:00 am)8% (Apr 19, 1:00 pm)29.45 "Hg (Apr 20, 5:00 pm)
Average86 °F38%29.68 "Hg
* Reported Apr 15 12:30 am — Apr 30 12:30 am, Amritsar, Weather by CustomWeather, © 2017

Note: Actual official high and low records may vary slightly from our data, if they occured in-between our weather recording intervals... More about our weather records

Advertising

Amritsar Weather History for the Previous 24 Hours

Scroll right to see more
 ConditionsComfort  
Time TempWeatherWind HumidityBarometerVisibility
12:30 am
Sun, Apr 30
77 °FThunderstorms. Partly cloudy.10 mph47%29.71 "Hg1 mi
11:30 pm
Sat, Apr 29
79 °FThunderstorms. Partly cloudy.14 mph45%29.74 "Hg1 mi
11:00 pm81 °FThunderstorms. Mostly cloudy.14 mph39%29.74 "Hg1 mi
10:30 pm82 °FPartly cloudy.14 mph32%29.74 "Hg1 mi
10:00 pm81 °FPassing clouds.12 mph34%29.74 "Hg2 mi
9:30 pm81 °FPassing clouds.9 mph34%29.74 "Hg3 mi
9:00 pm82 °FDuststorm.10 mph32%29.71 "Hg3 mi
8:00 pm84 °FHaze.9 mph31%29.71 "Hg3 mi
7:30 pm88 °FHaze.10 mph25%29.71 "Hg3 mi
7:00 pm90 °FHaze.13 mph26%29.71 "Hg3 mi
6:00 pm95 °FHaze.10 mph19%29.68 "Hg3 mi
5:30 pm95 °FHaze.8 mph19%29.68 "Hg3 mi
5:00 pm95 °FHaze.9 mph19%29.68 "Hg2 mi
4:30 pm95 °FLow level haze.9 mph19%29.68 "Hg2 mi
4:00 pm93 °FLow level haze.13 mph20%29.71 "Hg2 mi
3:30 pm93 °FLow level haze.13 mph20%29.71 "Hg2 mi
3:00 pm95 °FLow level haze.16 mph19%29.74 "Hg2 mi
2:30 pm93 °FLow level haze.18 mph20%29.74 "Hg2 mi
2:00 pm91 °FLow level haze.18 mph23%29.77 "Hg2 mi
1:00 pm90 °FLow level haze.28 mph26%29.77 "Hg1 mi
12:30 pm88 °FLow level haze.24 mph27%29.80 "Hg1 mi
12:00 pm88 °FLow level haze.28 mph27%29.83 "Hg1 mi
11:30 am88 °FLow level haze.28 mph27%29.83 "Hg1 mi
11:00 am86 °FLow level haze.30 mph29%29.83 "Hg1 mi
10:30 am86 °FLow level haze.24 mph29%29.83 "Hg2 mi
10:00 am86 °FPassing clouds.22 mph29%29.80 "Hg3 mi
9:30 am86 °FPassing clouds.20 mph31%29.80 "Hg3 mi
9:05 am84 °FPassing clouds.20 mph33%29.80 "Hg3 mi
8:30 am81 °FPassing clouds.20 mph39%29.77 "Hg3 mi
8:05 am79 °FPassing clouds.20 mph42%29.77 "Hg3 mi
7:30 am75 °FHaze.12 mph47%29.74 "Hg3 mi
7:00 am75 °FHaze.5 mph47%29.74 "Hg2 mi
6:30 am73 °FHaze.6 mph47%29.74 "Hg2 mi
6:00 am73 °FHaze.5 mph47%29.74 "Hg2 mi
5:30 am73 °FHaze.6 mph47%29.74 "Hg2 mi
5:00 am75 °FHaze.10 mph44%29.71 "Hg2 mi
4:30 am73 °FHaze.No wind50%29.68 "Hg2 mi
4:00 am75 °FHaze.No wind44%29.68 "Hg2 mi
3:30 am75 °FHaze.No wind44%29.68 "Hg2 mi
3:05 am75 °FHaze.No wind44%29.68 "Hg2 mi
Weather by CustomWeather, © 2017

See weather overviewHow to use our weather pages